Leadville, CO

7:47 PM MDT on March 29, 2017 (GMT -0600)
Lake County

Weather History for KLXV - April, 2014

Change the Weather History Date:

Tuesday, April 29, 2014

  Actual Average Record
Temperature  
Mean Temperature 22 °F -  
Max Temperature 30 °F 48 °F 65 °F (1992)
Min Temperature 14 °F 23 °F 7 °F (1984)
Degree Days  
Heating Degree Days 43 30  
Month to date heating degree days 1036 989  
Since 1 July heating degree days 9845 9972  
Cooling Degree Days 0 0  
Month to date cooling degree days 0 0  
Year to date cooling degree days 0 0  
Moisture  
Dew Point 12 °F    
Average Humidity 61    
Maximum Humidity 80    
Minimum Humidity 42    
Precipitation  
Precipitation T in 0.03 in 0.38 in (2016)
Month to date precipitation 0.86 1.03  
Year to date precipitation 6.71 3.29  
Sea Level Pressure  
Sea Level Pressure 30.16 in    
Wind  
Wind Speed 12 mph (NNW)    
Max Wind Speed 28 mph    
Max Gust Speed 38 mph    
Visibility 8 miles    
Events Snow    
T = Trace of Precipitation, MM = Missing Value Source: NWS Daily Summary

Daily Weather History Graph

Daily Weather History Graph

Search for Another Location

Airport or City:

Trip Planner

Search our weather history database for the weather conditions in past years. The results will help you decide how hot, cold, wet, or windy it might be!

Date:

Astronomy

Apr. 29, 2014 Rise Set
Actual Time 6:09 AM MDT 7:56 PM MDT
Civil Twilight 5:40 AM MDT 8:25 PM MDT
Nautical Twilight 5:05 AM MDT 9:00 PM MDT
Astronomical Twilight 4:28 AM MDT 9:37 PM MDT
Moon 6:29 AM MDT (4/29) 8:39 PM MDT (4/29)
Length of Visible Light 14h 44m
Length of Day
13h 47m
New Moon, 0% of the Moon is Illuminated
Apr 29
New Moon
May 6
First Quarter
May 14
Full
May 21
Last Quarter
May 28
New

Hourly Weather History & Observations

Time (MDT) Temp. Windchill Dew Point Humidity Pressure Visibility Wind Dir Wind Speed Gust Speed Precip Events Conditions
12:14 AM 15.1 °F 7.7 °F 12.0 °F 88% 30.08 in 4.0 mi NNW 4.6 mph - 0.00 in Snow Light Snow
12:23 AM 15.1 °F 6.4 °F 12.0 °F 88% 30.08 in 2.5 mi NW 5.8 mph - 0.00 in Snow Light Snow
12:31 AM 15.1 °F 6.4 °F 12.0 °F 88% 30.08 in 3.0 mi NW 5.8 mph - 0.00 in Snow Light Snow
12:53 AM 16.0 °F 4.4 °F 10.9 °F 81% 30.04 in 5.0 mi NW 9.2 mph - 0.00 in Snow Light Snow
1:38 AM 15.1 °F 7.7 °F 10.0 °F 80% 30.09 in 6.0 mi NW 4.6 mph - 0.00 in Snow Light Snow
1:53 AM 16.0 °F 8.8 °F 10.9 °F 81% 30.04 in 10.0 mi NNW 4.6 mph - 0.00 in   Overcast
2:53 AM 16.0 °F 5.3 °F 10.9 °F 81% 30.07 in 10.0 mi NNW 8.1 mph - N/A   Overcast
3:53 AM 16.0 °F 5.3 °F 10.9 °F 81% 30.09 in 7.0 mi NNW 8.1 mph - 0.00 in Snow Light Snow
4:53 AM 15.1 °F 7.7 °F 10.0 °F 80% 30.12 in 10.0 mi NW 4.6 mph - 0.00 in   Overcast
5:53 AM 15.1 °F 9.4 °F 10.0 °F 80% 30.12 in 10.0 mi NNW 3.5 mph - N/A   Overcast
6:53 AM 16.0 °F - 10.0 °F 77% 30.14 in 10.0 mi Calm Calm - N/A   Mostly Cloudy
7:53 AM 19.9 °F 6.2 °F 12.0 °F 71% 30.13 in 10.0 mi North 15.0 mph 19.6 mph N/A   Mostly Cloudy
8:53 AM 21.9 °F 7.8 °F 10.9 °F 63% 30.15 in 10.0 mi North 17.3 mph 29.9 mph N/A   Mostly Cloudy
9:18 AM 21.9 °F 7.8 °F 10.9 °F 63% 30.17 in 10.0 mi North 17.3 mph 26.5 mph N/A   Mostly Cloudy
9:25 AM 23.0 °F 7.6 °F 10.4 °F 59% 30.17 in 10.0 mi North 21.9 mph 28.8 mph N/A   Scattered Clouds
9:53 AM 23.0 °F 8.3 °F 9.0 °F 55% 30.16 in 10.0 mi North 19.6 mph 34.5 mph N/A   Mostly Cloudy
10:53 AM 25.0 °F 10.2 °F 9.0 °F 51% 30.15 in 10.0 mi NNW 21.9 mph 32.2 mph N/A   Mostly Cloudy
11:53 AM 28.0 °F 17.0 °F 9.0 °F 45% 30.13 in 10.0 mi North 13.8 mph 24.2 mph 0.00 in   Mostly Cloudy
12:53 PM 26.1 °F 14.5 °F 9.0 °F 49% 30.15 in 10.0 mi North 13.8 mph 26.5 mph N/A   Overcast
1:53 PM 26.1 °F 10.4 °F 9.0 °F 49% 30.16 in 10.0 mi North 26.5 mph 33.4 mph 0.00 in   Overcast
2:53 PM 28.4 °F 17.5 °F 8.6 °F 43% 30.20 in 10.0 mi NNW 13.8 mph 24.2 mph N/A   Overcast
3:53 PM 25.0 °F 11.3 °F 14.0 °F 63% 30.17 in 10.0 mi WNW 18.4 mph - 0.00 in   Overcast
4:01 PM 26.6 °F 15.7 °F 12.2 °F 55% 30.22 in 10.0 mi NNW 12.7 mph - N/A   Overcast
4:12 PM 28.0 °F 16.5 °F 10.9 °F 49% 30.21 in 10.0 mi North 15.0 mph 25.3 mph N/A   Mostly Cloudy
4:53 PM 26.1 °F 12.3 °F 12.9 °F 58% 30.18 in 10.0 mi North 19.6 mph 33.4 mph N/A   Mostly Cloudy
5:31 PM 25.0 °F 13.1 °F 16.0 °F 69% 30.23 in 1.8 mi North 13.8 mph 32.2 mph 0.00 in Snow Light Snow
5:40 PM 26.1 °F 15.0 °F 15.1 °F 63% 30.24 in 4.0 mi NNW 12.7 mph 19.6 mph 0.00 in Snow Light Snow
5:51 PM 24.8 °F 11.5 °F 17.6 °F 74% 30.25 in 0.8 mi North 17.3 mph 29.9 mph 0.00 in Snow Light Snow
5:53 PM 23.0 °F 10.1 °F 17.1 °F 78% 30.23 in 0.5 mi North 15.0 mph 29.9 mph 0.00 in Snow Snow
6:03 PM 24.1 °F 13.1 °F 17.1 °F 75% 30.24 in 2.5 mi North 11.5 mph - 0.00 in Snow Light Snow
6:06 PM 24.1 °F 14.4 °F 16.0 °F 71% 30.24 in 7.0 mi North 9.2 mph - 0.00 in   Overcast
6:53 PM 28.0 °F 18.1 °F 12.9 °F 53% 30.18 in 10.0 mi North 11.5 mph 16.1 mph 0.00 in   Mostly Cloudy
7:53 PM 24.1 °F 12.5 °F 12.0 °F 60% 30.19 in 10.0 mi WNW 12.7 mph - N/A   Overcast
8:53 PM 21.9 °F 11.7 °F 14.0 °F 72% 30.20 in 10.0 mi NW 9.2 mph 19.6 mph N/A   Mostly Cloudy
9:13 PM 21.9 °F 11.7 °F 15.1 °F 75% 30.26 in 9.0 mi North 9.2 mph - 0.00 in   Overcast
9:23 PM 21.9 °F 9.2 °F 15.1 °F 75% 30.26 in 10.0 mi North 13.8 mph - 0.00 in   Overcast
9:53 PM 21.0 °F 10.6 °F 15.1 °F 78% 30.20 in 10.0 mi NW 9.2 mph - 0.00 in   Mostly Cloudy
10:53 PM 21.0 °F 8.1 °F 10.9 °F 65% 30.21 in 10.0 mi North 13.8 mph 18.4 mph N/A   Mostly Cloudy
11:53 PM 19.9 °F 9.3 °F 12.9 °F 74% 30.20 in 10.0 mi NW 9.2 mph - N/A   Mostly Cloudy